Date String (YYYY-MM-DD hh:mm:ss) UTC,Instrument flags,Ambient pressure (hPa),Sample flow (lpm),Bypass flow (lpm),Sample temperature (°C),Ambient temperature (°C),ASC tube jacket temperature (°C),LED temperature (°C),Box temperature (°C),Sample RH (%),Span deviation,Mass concentration (μg/m³),Mass concentration (μg/m³),Mass concentration (μg/m³)
DateTimeUTC,F1_M11,P_M11,Q1_M11,Q2_M11,T1_M11,T2_M11,T3_M11,T4_M11,T5_M11,U1_M11,ZSPAN_M11,X0_M11,X2_M11,X1_M11
2021-11-09 08:00:00,,0830.6,5.01,0.00,24.9,23.9,00.0,33.9,26.6,17.1,0000.3,0022.75,0014.14,0012.84
2021-11-09 08:01:00,,0830.8,5.00,0.00,24.9,24.0,00.0,33.9,26.6,17.1,0000.3,0022.50,0014.19,0012.88
2021-11-09 08:02:00,,0831.0,5.00,0.00,24.9,24.0,00.0,33.9,26.6,17.0,0000.2,0022.80,0014.27,0012.93
2021-11-09 08:03:00,,0831.0,5.00,0.00,24.8,23.9,00.0,33.9,26.6,16.9,0000.2,0023.57,0014.29,0013.01
2021-11-09 08:04:00,,0831.1,5.01,0.00,24.8,23.9,00.0,33.9,26.6,16.7,0000.2,0023.45,0014.36,0013.03
2021-11-09 08:05:00,,0831.0,5.00,0.00,24.8,23.9,00.0,33.9,26.6,16.6,0000.4,0023.44,0014.30,0012.99
2021-11-09 08:06:00,,0830.9,5.01,0.00,24.8,23.9,00.0,33.9,26.6,16.3,0000.3,0024.03,0014.17,0012.87
2021-11-09 08:07:00,,0830.7,4.99,0.00,24.8,23.9,00.0,33.9,26.6,16.3,0000.5,0023.35,0014.06,0012.77
2021-11-09 08:08:00,,0830.6,5.00,0.00,24.8,23.9,00.0,33.9,26.6,16.7,0000.6,0022.85,0013.99,0012.73
2021-11-09 08:09:00,,0830.6,5.01,0.00,24.8,23.9,00.0,33.9,26.6,16.9,0000.4,0022.70,0013.97,0012.76
2021-11-09 08:10:00,,0830.7,4.99,0.00,24.8,23.9,00.0,33.9,26.6,17.1,0000.0,0022.26,0014.13,0012.88
2021-11-09 08:11:00,,0830.8,5.01,0.00,24.8,23.9,00.0,33.9,26.6,17.0,0000.0,0021.87,0014.34,0013.04
2021-11-09 08:12:00,,0830.9,4.99,0.00,24.8,23.9,00.0,33.9,26.6,17.1,-000.0,0022.03,0014.43,0013.14
2021-11-09 08:13:00,,0830.9,5.01,0.00,24.8,23.9,00.0,33.9,26.6,17.0,0000.3,0021.86,0014.40,0013.15
2021-11-09 08:14:00,,0830.9,5.01,0.00,24.8,23.9,00.0,33.9,26.5,16.8,0000.5,0021.38,0014.39,0013.07
2021-11-09 08:15:00,,0830.8,4.99,0.00,24.8,23.9,00.0,33.9,26.5,16.9,0000.6,0021.08,0014.36,0013.05
2021-11-09 08:16:00,,0830.7,5.00,0.00,24.8,23.8,00.0,33.9,26.5,17.0,0000.3,0021.32,0014.38,0013.04
2021-11-09 08:17:00,,0830.7,5.01,0.00,24.8,23.8,00.0,33.9,26.5,17.0,0000.5,0021.11,0014.35,0013.04
2021-11-09 08:18:00,,0830.7,4.99,0.00,24.7,23.8,00.0,33.8,26.5,17.0,-000.1,0021.27,0014.40,0013.04
2021-11-09 08:19:00,,0830.8,5.01,0.00,24.7,23.8,00.0,33.8,26.5,17.1,-000.3,0021.80,0014.43,0013.04
2021-11-09 08:20:00,,0830.8,5.02,0.00,24.7,23.8,00.0,33.8,26.5,17.2,-000.5,0021.74,0014.40,0013.01
2021-11-09 08:21:00,,0830.8,4.99,0.00,24.7,23.8,00.0,33.8,26.5,17.2,-000.5,0021.46,0014.32,0012.97
2021-11-09 08:22:00,,0830.9,5.01,0.00,24.7,23.8,00.0,33.8,26.4,17.0,-000.5,0021.29,0014.18,0012.90
2021-11-09 08:23:00,,0830.9,5.00,0.00,24.7,23.8,00.0,33.8,26.4,17.0,-000.6,0021.34,0014.07,0012.77
2021-11-09 08:24:00,,0830.9,5.01,0.00,24.7,23.7,00.0,33.8,26.4,17.1,-000.9,0022.33,0014.07,0012.74
2021-11-09 08:25:00,,0830.8,4.99,0.00,24.7,23.8,00.0,33.8,26.4,17.1,-001.0,0022.26,0014.07,0012.80
2021-11-09 08:26:00,,0830.8,5.00,0.00,24.7,23.8,00.0,33.8,26.4,17.0,-001.0,0022.62,0014.08,0012.80
2021-11-09 08:27:00,,0830.6,5.01,0.00,24.7,23.8,00.0,33.8,26.4,17.0,-001.1,0022.59,0014.10,0012.84
2021-11-09 08:28:00,,0830.6,5.00,0.00,24.7,23.8,00.0,33.8,26.4,17.2,-001.3,0022.68,0014.19,0012.89
2021-11-09 08:29:00,,0830.7,5.01,0.00,24.7,23.8,00.0,33.8,26.4,17.2,-001.2,0022.94,0014.21,0012.95
2021-11-09 08:30:00,,0830.8,5.00,0.00,24.7,23.8,00.0,33.8,26.4,17.3,-001.0,0023.59,0014.26,0012.99
2021-11-09 08:31:00,,0830.9,5.01,0.00,24.7,23.8,00.0,33.7,26.4,17.3,-000.6,0024.22,0014.33,0013.03
2021-11-09 08:32:00,,0830.9,5.00,0.00,24.7,23.7,00.0,33.7,26.4,17.2,-000.3,0024.79,0014.39,0013.03
2021-11-09 08:33:00,,0831.0,5.00,0.00,24.6,23.7,00.0,33.7,26.3,17.2,-000.2,0025.29,0014.50,0013.10
2021-11-09 08:34:00,,0830.9,5.00,0.00,24.6,23.7,00.0,33.7,26.3,17.3,-000.2,0025.43,0014.65,0013.23
2021-11-09 08:35:00,,0830.8,5.01,0.00,24.6,23.7,00.0,33.7,26.3,17.5,-000.1,0024.87,0014.79,0013.34
2021-11-09 08:36:00,,0830.7,4.99,0.00,24.6,23.7,00.0,33.7,26.3,17.5,-000.1,0025.52,0014.89,0013.43
2021-11-09 08:37:00,,0830.6,5.01,0.00,24.6,23.7,00.0,33.7,26.4,17.6,-000.1,0025.46,0014.94,0013.49
2021-11-09 08:38:00,,0830.6,4.99,0.00,24.6,23.7,00.0,33.7,26.3,17.6,-000.1,0025.57,0015.00,0013.51
2021-11-09 08:39:00,,0830.8,5.00,0.00,24.6,23.7,00.0,33.7,26.4,17.6,-000.3,0025.00,0014.93,0013.46
2021-11-09 08:40:00,,0830.8,5.00,0.00,24.6,23.7,00.0,33.7,26.3,17.6,-000.5,0025.35,0014.87,0013.38
2021-11-09 08:41:00,,0830.9,5.00,0.00,24.6,23.7,00.0,33.7,26.3,17.6,-000.5,0025.31,0014.79,0013.34
2021-11-09 08:42:00,,0830.9,4.99,0.00,24.6,23.7,00.0,33.7,26.3,17.6,-000.6,0026.04,0014.74,0013.30
2021-11-09 08:43:00,,0830.9,5.00,0.00,24.6,23.6,00.0,33.7,26.2,17.6,-000.8,0026.90,0014.73,0013.30
2021-11-09 08:44:00,,0830.9,5.00,0.00,24.5,23.6,00.0,33.7,26.2,17.6,-001.0,0026.93,0014.77,0013.35
2021-11-09 08:45:00,,0830.8,4.99,0.00,24.5,23.6,00.0,33.7,26.3,17.7,-000.9,0026.87,0014.76,0013.35
2021-11-09 08:46:00,,0830.8,5.01,0.00,24.6,23.6,00.0,33.7,26.3,17.7,-000.8,0026.68,0014.64,0013.25
2021-11-09 08:47:00,,0830.9,4.99,0.00,24.6,23.6,00.0,33.6,26.3,17.8,-000.9,0026.05,0014.50,0013.09
2021-11-09 08:48:00,,0831.0,5.00,0.00,24.5,23.6,00.0,33.6,26.3,17.7,-000.6,0026.15,0014.44,0013.04
2021-11-09 08:49:00,,0830.9,5.01,0.00,24.5,23.6,00.0,33.6,26.2,17.7,-000.4,0026.02,0014.46,0013.05
2021-11-09 08:50:00,,0830.8,4.99,0.00,24.5,23.6,00.0,33.6,26.2,17.7,-000.3,0026.26,0014.43,0013.07
2021-11-09 08:51:00,,0830.8,5.01,0.00,24.5,23.5,00.0,33.6,26.2,17.9,-000.0,0026.67,0014.48,0013.09
2021-11-09 08:52:00,,0830.7,5.01,0.00,24.5,23.5,00.0,33.6,26.3,18.0,-000.1,0026.54,0014.49,0013.12
2021-11-09 08:53:00,,0830.8,4.99,0.00,24.5,23.6,00.0,33.6,26.3,18.1,-000.2,0025.20,0014.55,0013.20
2021-11-09 08:54:00,,0831.0,5.00,0.00,24.5,23.6,00.0,33.6,26.3,18.1,-000.1,0024.09,0014.58,0013.26
2021-11-09 08:55:00,,0831.0,5.01,0.00,24.5,23.6,00.0,33.6,26.2,18.0,0000.0,0023.57,0014.53,0013.19
2021-11-09 08:56:00,,0831.1,5.02,0.00,24.5,23.6,00.0,33.6,26.2,17.5,-000.2,0023.64,0014.57,0013.24
2021-11-09 08:57:00,,0831.0,4.99,0.00,24.5,23.5,00.0,33.6,26.2,17.6,-000.1,0023.86,0014.66,0013.30
2021-11-09 08:58:00,,0830.8,5.01,0.00,24.5,23.5,00.0,33.6,26.2,17.8,-000.0,0023.59,0014.74,0013.39
2021-11-09 08:59:00,,0830.7,4.99,0.00,24.5,23.5,00.0,33.6,26.2,17.9,-000.3,0023.31,0014.85,0013.48
